Weather History for Greenville, AL

Change the Weather History Date:

Saturday, January 26, 2013

  Actual Average Record
Temperature  
Mean Temperature 54 °F -  
Max Temperature 59 °F 59 °F 81 °F (1950)
Min Temperature 48 °F 36 °F 12 °F (1940)
Degree Days  
Heating Degree Days 12    
Growing Degree Days 4 (Base 50)    
Moisture  
Dew Point 51 °F    
Average Humidity 86    
Maximum Humidity 94    
Minimum Humidity 66    
Precipitation  
Precipitation 0.00 in - - ()
Sea Level Pressure  
Sea Level Pressure 30.22 in    
Wind  
Wind Speed 4 mph (NW)    
Max Wind Speed 8 mph    
Max Gust Speed -    
Visibility 9 miles    
Events      
Averages and records for this station are not official NWS values.
T = Trace of Precipitation, MM = Missing Value Source: NWS Daily Summary

Daily Weather History Graph

Daily Weather History Graph

Search for Another Location

Airport:

Trip Planner

Search our weather history database for the weather conditions in past years. The results will help you decide how hot, cold, wet, or windy it might be!

Date:

Astronomy

Jan. 26, 2013 Rise Set
Actual Time 6:43 AM CST 5:15 PM CST
Civil Twilight 6:17 AM CST 5:41 PM CST
Nautical Twilight 5:47 AM CST 6:10 PM CST
Astronomical Twilight 5:18 AM CST 6:39 PM CST
Moon 5:06 PM CST (1/26) 6:02 AM CST (1/26)
Length of Visible Light 11h 24m
Length of Day
10h 32m
Full, 100% of the Moon is Illuminated
Jan 26
Full
Jan 26
Full
Feb 3
Last Quarter
Feb 10
New
Feb 17
First Quarter

Hourly Weather History & Observations

Time (CST) Temp. Dew Point Humidity Pressure Visibility Wind Dir Wind Speed Gust Speed Precip Events Conditions
12:56 AM 57.9 °F 53.1 °F 84% 30.15 in 10.0 mi SW 6.9 mph - N/A   Scattered Clouds
1:56 AM 57.0 °F 53.1 °F 87% 30.15 in 10.0 mi Calm Calm - N/A   Scattered Clouds
2:56 AM 55.0 °F 53.1 °F 93% 30.15 in 10.0 mi SW 3.5 mph - N/A   Clear
3:20 AM 55.4 °F 53.6 °F 94% 30.16 in 10.0 mi SW 4.6 mph - N/A   Mostly Cloudy
3:56 AM 55.0 °F 53.1 °F 93% 30.15 in 10.0 mi Calm Calm - N/A   Overcast
4:56 AM 55.9 °F 54.0 °F 93% 30.16 in 9.0 mi Calm Calm - N/A   Overcast
5:56 AM 57.0 °F 54.0 °F 89% 30.18 in 9.0 mi Calm Calm - N/A   Overcast
6:29 AM 57.2 °F 53.6 °F 88% 30.19 in 9.0 mi Calm Calm - N/A   Overcast
6:48 AM 57.2 °F 53.6 °F 88% 30.21 in 9.0 mi West 3.5 mph - N/A   Overcast
6:56 AM 57.0 °F 54.0 °F 89% 30.21 in 7.0 mi WSW 3.5 mph - N/A   Overcast
7:29 AM 57.2 °F 55.4 °F 94% 30.22 in 7.0 mi West 4.6 mph - N/A   Overcast
7:41 AM 57.2 °F 55.4 °F 94% 30.22 in 8.0 mi West 3.5 mph - N/A   Overcast
7:56 AM 57.9 °F 55.0 °F 90% 30.22 in 10.0 mi WNW 4.6 mph - N/A   Overcast
8:26 AM 57.2 °F 55.4 °F 94% 30.23 in 10.0 mi NW 8.1 mph - N/A   Overcast
8:56 AM 57.9 °F 54.0 °F 87% 30.24 in 10.0 mi NW 8.1 mph - N/A   Overcast
9:12 AM 57.2 °F 53.6 °F 88% 30.25 in 10.0 mi NW 5.8 mph - N/A   Overcast
9:56 AM 59.0 °F 53.1 °F 81% 30.24 in 10.0 mi NNW 4.6 mph - N/A   Overcast
10:53 AM 55.4 °F 53.6 °F 94% 30.25 in 8.0 mi North 6.9 mph - N/A   Overcast
10:56 AM 57.0 °F 54.0 °F 89% 30.25 in 8.0 mi North 6.9 mph - N/A   Overcast
11:56 AM 57.0 °F 53.1 °F 87% 30.24 in 10.0 mi NNW 5.8 mph - N/A   Overcast
12:56 PM 55.0 °F 51.1 °F 86% 30.22 in 6.0 mi North 6.9 mph - N/A   Overcast
1:48 PM 55.4 °F 51.8 °F 88% 30.23 in 7.0 mi NNE 3.5 mph - N/A   Overcast
1:56 PM 55.9 °F 51.1 °F 84% 30.22 in 8.0 mi North 3.5 mph - N/A   Overcast
2:56 PM 57.9 °F 51.1 °F 78% 30.22 in 10.0 mi NNW 3.5 mph - N/A   Overcast
3:48 PM 57.2 °F 51.8 °F 82% 30.22 in 10.0 mi NNW 3.5 mph - N/A   Mostly Cloudy
3:56 PM 57.9 °F 51.1 °F 78% 30.22 in 10.0 mi Calm Calm - N/A   Mostly Cloudy
4:56 PM 57.0 °F 51.1 °F 81% 30.22 in 10.0 mi Calm Calm - N/A   Scattered Clouds
5:56 PM 57.0 °F 51.1 °F 81% 30.23 in 10.0 mi Calm Calm - N/A   Overcast
6:56 PM 54.0 °F 51.1 °F 90% 30.25 in 10.0 mi NNW 3.5 mph - N/A   Mostly Cloudy
7:56 PM 52.0 °F 48.9 °F 89% 30.25 in 8.0 mi North 3.5 mph - N/A   Mostly Cloudy
8:56 PM 52.0 °F 44.1 °F 74% 30.25 in 10.0 mi Calm Calm - N/A   Clear
9:56 PM 48.0 °F 45.0 °F 89% 30.26 in 9.0 mi NNE 4.6 mph - N/A   Partly Cloudy
10:19 PM 48.2 °F 42.8 °F 82% 30.27 in 10.0 mi North 3.5 mph - N/A   Mostly Cloudy
10:56 PM 50.0 °F 42.1 °F 74% 30.27 in 10.0 mi ENE 3.5 mph - N/A   Overcast
11:16 PM 50.0 °F 42.8 °F 76% 30.26 in 10.0 mi Calm Calm - N/A   Overcast
11:56 PM 52.0 °F 41.0 °F 66% 30.27 in 10.0 mi Calm Calm - N/A   Overcast